SCP
0 0 0 0 0 0 0 0 0 0 0 0 0 0 0 0 0 0 0 0 0 0 0 0 0 0 0 0 0 0 0 0 0 0 0 0 0 0 0 0 0 0 0
0 0 0 0 0 0 0 0 0 0 0 0 0 0 0 0 0 0 0 0 0 0 0 0 0 0 0 0 0 0 0 0 0 0 0 0 0 0 0 0 0 0 0
0 0 0 0 0 0 0 0 0 0 0 0 0 0 0 0 0 0 0 0 0 0 0 0 0 0 0 0 0 0 0 0 0 0 0 0 0 0 0 0 0 0 0
0 0 0 0 0 0 0 0 0 0 0 0 0 0 0 0 0 0 0 0 0 0 0 0 0 0 0 0 0 0 0 0 0 0 0 0 0 0 0 0 0 0 0
0 0 0 0 0 0 0 0 0 0 0 0 0 0 0 0 0 0 0 0 0 0 0 0 0 0 0 0 0 0 0 0 0 0 0 0 0 0 0 0 0 0 0
0 0 0 0 0 0 0 0 0 0 0 0 0 0 0 0 0 0 0 0 0 0 0 0 0 0 0 0 0 0 0 0 0 0 0 0 0 0 0 0 0 0 0
0 0 0 0 0 0 0 0 0 0 0 0 0 0 0 0 0 0 0 0 0 0 0 0 0 0 0 0 0 0 0 0 0 0 0 0 0 0 0 0 0 0 0
-0 -0 0 0 0 0 0 0 0 0 0 0 0 0 0 0 0 0 0 0 0 0 0 0 0 0 0 0 0 0 0 0 0 0 0 0 0 0 0 0 0 0 0
-0 0 0 0 0 0 0 0 0 0 0 0 0 0 0 0 0 0 0 0 0 0 0 0 0 0 0 0 0 0 0 0 0 0 0 0 0 0 0 0 0 0 0
0 -0 -0 0 0 0 0 0 0 0 0 0 0 0 0 0 0 0 0 0 0 0 0 0 0 0 0 0 0 0 0 0 0 0 0 0 0 0 0 0 0 0 0
0 0 0 0 0 0 0 0 0 0 0 0 0 0 0 0 0 0 0 0 0 0 0 0 0 0 0 0 0 0 0 0 0 0 0 0 0 0 0 0 0 0 0
0 0 0 0 0 0 0 0 0 0 0 0 0 0 0 0 0 0 0 0 0 0 0 0 0 0 0 0 0 0 0 0 0 0 0 0 0 0 0 0 0 0 0
0 0 0 0 0 0 0 0 0 0 0 0 0 0 0 0 0 0 0 0 0 0 0 0 0 0 0 0 0 0 0 0 0 0 0 0 0 0 0 0 0 0 0
0 0 0 0 0 0 0 0 0 0 0 0 0 0 0 0 0 0 0 0 0 0 0 0 0 0 0 0 0 0 0 0 0 0 0 0 0 0 0 0 0 0 0
0 0 0 0 0 0 0 0 0 0 0 0 0 0 0 0 0 0 0 0 0 0 0 0 0 0 0 0 0 0 0 0 0 0 0 0 0 0 0 0 0 0 0
0 0 0 0 0 0 0 0 0 0 0 0 0 0 0 0 0 0 0 0 0 0 0 0 0 0 0 0 0 0 0 0 0 0 0 0 0 0 0 0 0 0 0
0 0 0 0 0 0 0 0 0 0 0 0 0 0 0 0 0 0 0 0 0 0 0 0 0 0 0 0 0 0 0 0 0 0 0 0 0 0 0 0 0 0 0
0 0 0 0 0 0 0 0 0 0 0 0 0 0 0 0 0 0 0 0 0 0 0 0 0 0 0 0 0 0 0 0 0 0 0 0 0 0 0 0 0 0 0
0 0 0 0 0 0 0 0 0 0 0 0 0 0 0 0 0 0 0 0 0 0 0 0 0 0 0 0 0 0 0 0 0 0 0 0 0 0 0 0 0 0 0
0 0 0 0 0 0 0 0 0 0 0 0 0 0 0 0 0 0 0 0 0 0 0 0 0 0 0 0 0 0 0 0 0 0 0 0 0 0 0 0 0 0 0
0 0 0 0 0 0 0 0 0 0 0 0 0 0 0 0 0 0 0 0 0 0 0 0 0 0 0 0 0 0 0 0 0 0 0 0 0 0 0 0 0 0 0
0 0 0 0 0 0 0 0 0 0 0 0 0 0 0 0 0 0 0 0 0 0 0 0 0 0 0 0 0 0 0 0 0 0 0 0 0 0 0 0 0 0 0
0 0 0 0 0 -0 0 0 0 0 0 0 0 0 0 0 0 0 0 0 0 0 0 0 0 0 0 0 0 0 0 0 0 0 0 0 0 0 0 0 0 0 0
0 0 0 0 0 0 -0 0 0 0 0 0 0 0 0 0 0 0 0 0 0 0 0 0 0 0 0 0 0 0 0 0 0 0 0 0 0 0 0 0 0 -0 -0
-0 0 0 -0 0 -0 0 0 0 0 0 0 0 0 0 0 0 0 0 0 0 0 0 0 0 0 0 0 0 0 0 0 0 0 0 0 0 -0 -0 -0 -0 -0 -0
-0 0 -0 0 0 0 0 0 0 0 0 0 0 0 0 0 0 0 0 0 0 0 0 0 0 0 0 0 0 0 0 0 0 0 0 0 -0 -0 -0 -0 -0 -0 -0
Wind_Speed_500mb
111 114 115 116 115 114 116 116 116 111 105 98 96 89 85 81 78 73 68 62 59 55 54 52 51 49 50 51 52 54 56 58 70 78 75 76 80 83 87 88 90 94 89
100 110 117 117 117 120 124 124 121 120 114 110 105 101 95 89 83 79 75 71 67 62 57 56 54 54 56 55 56 57 60 61 65 78 79 81 81 83 89 90 91 76 73
86 95 102 110 118 126 129 129 127 126 124 119 115 112 106 99 93 87 81 76 71 64 60 59 57 57 60 59 59 61 63 65 68 74 84 81 84 88 89 86 73 81 71
77 89 95 99 107 115 123 130 132 130 128 127 124 121 114 106 100 92 87 81 75 69 64 63 61 62 63 61 61 64 66 69 70 75 80 83 81 80 72 76 76 68 80
64 74 84 87 94 104 115 121 126 128 131 130 127 125 120 114 107 99 92 85 78 73 69 67 65 63 62 63 64 65 66 68 69 71 77 69 66 67 67 67 81 89 92
57 62 66 74 83 94 105 115 119 124 125 125 128 130 127 122 115 104 94 87 81 76 72 69 66 64 64 64 64 63 62 58 61 63 71 69 67 62 74 78 80 86 95
60 64 70 70 73 81 94 106 113 117 119 124 127 128 131 125 120 107 97 89 83 78 73 69 68 65 64 61 60 60 60 58 54 52 64 67 75 74 81 85 76 85 90
59 60 65 66 70 72 75 91 106 108 114 119 124 127 126 126 121 108 97 89 83 79 74 70 66 62 61 59 58 59 60 60 59 56 56 61 64 68 70 78 83 89 93
65 69 67 64 66 69 74 78 87 102 107 112 118 119 119 120 116 107 97 90 85 79 74 69 64 61 57 56 56 56 58 59 59 56 59 63 56 55 59 65 73 73 87
77 78 73 64 63 61 65 71 72 91 102 104 112 114 112 115 109 104 98 92 86 79 72 64 59 55 54 52 51 49 54 58 60 64 60 56 55 55 53 54 58 65 73
77 83 78 75 67 71 70 67 64 72 86 98 107 106 106 104 104 99 99 89 82 75 66 57 50 50 47 45 41 41 51 46 56 58 54 55 54 56 55 56 54 58 71
85 85 75 69 76 73 72 69 62 65 81 96 101 100 98 96 94 96 92 81 72 64 57 49 43 42 42 41 36 43 42 41 49 49 50 52 55 57 58 62 60 58 64
91 92 87 82 77 76 69 63 59 61 76 85 90 94 94 92 87 82 78 73 68 53 45 37 40 40 39 39 38 39 41 42 43 44 48 52 54 59 62 66 67 66 73
99 89 91 91 77 74 69 63 65 67 70 82 89 97 92 90 90 81 68 60 52 42 36 35 34 33 32 34 33 34 36 37 38 41 46 51 56 60 64 66 71 72 81
104 102 94 91 85 77 69 65 68 71 72 75 88 95 96 102 93 75 60 50 40 33 31 30 29 30 29 29 31 31 32 35 38 38 45 53 59 63 66 65 69 75 79
106 108 103 97 85 78 74 69 67 69 66 69 72 81 86 95 75 63 53 44 35 31 26 26 26 24 23 26 28 29 32 35 37 41 46 53 60 65 69 70 70 73 81
103 104 101 94 88 71 72 70 66 49 49 61 67 67 75 70 62 54 42 35 29 26 23 20 19 20 21 24 27 30 34 36 39 43 49 53 60 65 68 71 74 75 83
104 102 100 88 81 73 68 63 52 62 63 54 48 61 63 60 54 42 35 27 22 17 16 15 16 17 20 24 28 32 35 38 41 45 50 53 60 63 69 70 75 79 86
99 98 96 83 79 70 60 64 77 79 76 72 66 58 55 50 43 37 27 18 13 10 9 11 14 17 20 25 29 33 38 41 44 48 52 57 60 64 68 72 77 81 87
91 93 88 79 68 60 69 83 88 79 74 70 67 65 58 47 34 25 18 12 7 5 7 11 14 18 23 28 32 36 40 43 45 49 55 60 61 64 68 75 77 85 91
89 83 69 63 61 68 79 86 82 76 74 64 55 46 32 28 24 18 13 9 4 3 8 12 17 21 26 30 35 40 44 46 47 53 58 59 62 66 71 74 80 86 93
75 64 56 58 63 71 75 75 78 69 59 55 50 41 35 27 19 15 10 5 0 5 9 14 18 23 27 32 37 41 45 48 50 53 58 59 63 69 71 76 82 90 94
58 51 53 58 60 65 71 74 66 60 52 43 40 35 30 22 16 11 6 3 2 8 13 18 22 24 30 33 36 41 47 50 51 53 57 62 67 69 71 80 87 91 91
44 47 53 52 58 67 69 67 60 49 45 43 36 30 23 17 13 8 4 4 8 13 18 22 26 30 33 35 37 41 45 47 50 52 56 65 68 67 75 83 85 87 95
40 45 48 54 67 70 70 62 54 50 45 38 32 25 20 15 10 6 7 10 14 18 23 26 30 32 36 38 40 41 43 44 46 52 56 58 63 69 77 82 84 95 102
41 43 55 68 74 72 63 58 55 48 41 35 28 22 17 13 10 9 10 14 18 21 24 26 30 34 37 40 39 42 42 43 49 45 50 63 73 81 85 87 94 100 104
Wind_Direction_500mb
259 254 251 252 251 250 249 249 248 247 247 244 246 244 243 242 240 241 244 246 248 250 253 257 262 266 271 273 274 278 282 284 283 293 296 301 303 306 308 308 309 310 309
269 263 258 256 254 253 252 253 251 249 247 247 244 244 244 243 242 241 244 245 246 248 252 255 261 264 269 272 273 278 283 287 286 289 296 299 303 306 305 306 309 306 303
277 268 264 262 259 257 257 256 254 251 250 247 245 244 244 243 242 241 243 244 245 247 252 255 261 263 266 269 273 278 281 283 284 286 294 298 300 306 310 312 309 305 306
282 272 268 267 267 267 265 260 256 254 252 248 246 246 245 244 243 242 242 242 243 245 249 253 257 261 265 268 270 275 279 282 286 288 293 301 307 312 309 309 310 307 305
297 282 277 278 275 272 265 261 258 256 255 252 249 247 245 244 242 240 240 241 242 244 247 250 254 259 263 265 270 275 279 282 285 294 301 305 304 309 310 308 305 307 307
306 297 293 284 281 276 270 263 258 255 253 250 249 248 245 243 242 240 239 239 240 241 245 248 252 255 259 265 271 277 282 286 292 297 298 302 304 303 302 306 309 309 307
317 311 302 294 288 284 277 267 260 255 252 250 248 247 247 246 242 239 236 236 237 240 242 245 249 254 260 265 271 275 278 282 282 289 288 290 296 301 307 309 307 304 303
311 314 313 307 300 293 284 273 264 258 253 250 249 246 246 248 244 237 233 233 234 236 239 242 246 251 256 264 270 276 281 287 290 295 293 296 297 303 301 298 299 299 303
306 312 303 301 302 299 292 281 272 261 254 251 247 242 241 244 244 235 228 228 230 231 234 238 244 249 256 264 271 277 283 288 292 293 291 294 299 299 302 302 303 307 309
316 315 309 298 296 299 300 295 278 265 259 253 246 242 240 242 242 233 226 226 226 226 228 235 243 249 255 264 271 279 285 291 296 296 301 305 303 305 305 302 305 306 310
305 306 309 304 297 300 295 288 277 263 255 250 244 238 239 240 238 229 226 223 223 222 227 233 240 251 262 271 276 276 282 293 288 295 301 306 308 309 311 311 309 305 307
311 308 305 300 302 294 288 282 273 262 250 241 236 235 236 232 229 222 222 219 218 221 226 232 242 258 263 267 266 276 283 283 294 297 301 307 310 313 314 313 313 308 306
312 312 307 303 298 293 282 275 260 249 236 241 239 233 231 224 214 213 215 214 217 218 225 234 249 254 259 268 280 284 283 292 293 300 306 309 312 314 316 318 314 313 312
307 308 308 305 301 291 279 269 256 253 241 237 233 229 228 212 203 203 199 204 211 214 225 244 249 256 270 279 285 285 290 292 299 305 306 311 314 317 317 321 317 320 318
309 309 305 301 299 288 277 270 265 263 256 245 235 233 227 208 203 203 204 202 205 218 233 237 253 266 280 285 288 292 293 298 302 306 308 312 317 318 317 321 319 320 320
302 304 303 298 294 284 273 268 259 251 247 238 237 240 226 212 198 194 195 201 213 231 233 247 260 273 283 289 290 294 296 300 304 307 310 313 315 317 319 318 319 320 320
296 297 294 291 288 274 268 259 242 231 226 220 216 228 212 194 192 190 191 202 215 234 241 254 268 279 287 287 290 295 299 303 306 308 309 313 316 316 317 316 320 321 321
292 289 285 283 282 270 257 237 204 184 160 150 165 188 180 182 180 181 195 201 208 223 249 264 274 282 284 288 295 298 302 305 307 307 309 312 315 315 315 318 321 319 321
287 284 282 277 275 257 234 207 185 169 164 158 149 149 160 165 164 170 195 195 209 226 250 272 282 287 291 297 301 304 305 307 308 309 311 313 315 316 315 318 318 319 321
287 281 274 270 254 225 202 190 181 177 168 164 167 168 163 168 165 172 175 181 191 230 277 288 296 302 304 304 306 306 306 308 310 311 311 312 314 314 315 317 318 318 320
283 273 263 246 221 206 194 189 185 179 176 167 161 160 155 163 164 161 157 160 177 271 298 302 309 311 308 308 309 309 308 310 312 312 311 311 314 314 317 317 317 318 318
270 260 238 219 205 194 192 188 183 175 161 154 152 157 162 159 154 144 139 139 148 307 311 316 313 311 310 309 308 308 309 311 311 310 310 312 313 314 317 317 318 318 319
262 235 213 200 197 192 186 180 166 156 153 151 157 151 148 145 138 131 123 118 326 321 317 312 314 312 307 307 307 309 308 309 311 311 312 312 313 316 317 316 318 318 319
234 215 202 193 188 181 171 157 151 145 145 151 145 142 137 132 122 117 96 4 332 321 315 315 312 309 308 310 310 308 307 309 309 310 311 311 313 315 316 318 319 319 320
213 201 191 183 176 163 153 145 137 146 147 143 138 131 125 120 110 79 24 347 331 326 320 314 310 310 311 311 311 309 310 310 309 309 309 310 312 317 320 319 320 321 319
191 184 176 167 155 149 140 136 143 141 136 130 124 119 109 92 65 28 355 339 332 323 317 315 315 313 313 312 312 311 311 312 313 317 320 320 319 321 321 318 319 318 316
Wind_Speed_850mb
111 114 115 116 115 114 116 116 116 111 105 98 96 89 85 81 78 73 68 62 59 55 54 52 51 49 50 51 52 54 56 58 70 78 75 76 80 83 87 88 90 94 89
100 110 117 117 117 120 124 124 121 120 114 110 105 101 95 89 83 79 75 71 67 62 57 56 54 54 56 55 56 57 60 61 65 78 79 81 81 83 89 90 91 76 73
86 95 102 110 118 126 129 129 127 126 124 119 115 112 106 99 93 87 81 76 71 64 60 59 57 57 60 59 59 61 63 65 68 74 84 81 84 88 89 86 73 81 71
77 89 95 99 107 115 123 130 132 130 128 127 124 121 114 106 100 92 87 81 75 69 64 63 61 62 63 61 61 64 66 69 70 75 80 83 81 80 72 76 76 68 80
64 74 84 87 94 104 115 121 126 128 131 130 127 125 120 114 107 99 92 85 78 73 69 67 65 63 62 63 64 65 66 68 69 71 77 69 66 67 67 67 81 89 92
57 62 66 74 83 94 105 115 119 124 125 125 128 130 127 122 115 104 94 87 81 76 72 69 66 64 64 64 64 63 62 58 61 63 71 69 67 62 74 78 80 86 95
60 64 70 70 73 81 94 106 113 117 119 124 127 128 131 125 120 107 97 89 83 78 73 69 68 65 64 61 60 60 60 58 54 52 64 67 75 74 81 85 76 85 90
59 60 65 66 70 72 75 91 106 108 114 119 124 127 126 126 121 108 97 89 83 79 74 70 66 62 61 59 58 59 60 60 59 56 56 61 64 68 70 78 83 89 93
65 69 67 64 66 69 74 78 87 102 107 112 118 119 119 120 116 107 97 90 85 79 74 69 64 61 57 56 56 56 58 59 59 56 59 63 56 55 59 65 73 73 87
77 78 73 64 63 61 65 71 72 91 102 104 112 114 112 115 109 104 98 92 86 79 72 64 59 55 54 52 51 49 54 58 60 64 60 56 55 55 53 54 58 65 73
77 83 78 75 67 71 70 67 64 72 86 98 107 106 106 104 104 99 99 89 82 75 66 57 50 50 47 45 41 41 51 46 56 58 54 55 54 56 55 56 54 58 71
85 85 75 69 76 73 72 69 62 65 81 96 101 100 98 96 94 96 92 81 72 64 57 49 43 42 42 41 36 43 42 41 49 49 50 52 55 57 58 62 60 58 64
91 92 87 82 77 76 69 63 59 61 76 85 90 94 94 92 87 82 78 73 68 53 45 37 40 40 39 39 38 39 41 42 43 44 48 52 54 59 62 66 67 66 73
99 89 91 91 77 74 69 63 65 67 70 82 89 97 92 90 90 81 68 60 52 42 36 35 34 33 32 34 33 34 36 37 38 41 46 51 56 60 64 66 71 72 81
104 102 94 91 85 77 69 65 68 71 72 75 88 95 96 102 93 75 60 50 40 33 31 30 29 30 29 29 31 31 32 35 38 38 45 53 59 63 66 65 69 75 79
106 108 103 97 85 78 74 69 67 69 66 69 72 81 86 95 75 63 53 44 35 31 26 26 26 24 23 26 28 29 32 35 37 41 46 53 60 65 69 70 70 73 81
103 104 101 94 88 71 72 70 66 49 49 61 67 67 75 70 62 54 42 35 29 26 23 20 19 20 21 24 27 30 34 36 39 43 49 53 60 65 68 71 74 75 83
104 102 100 88 81 73 68 63 52 62 63 54 48 61 63 60 54 42 35 27 22 17 16 15 16 17 20 24 28 32 35 38 41 45 50 53 60 63 69 70 75 79 86
99 98 96 83 79 70 60 64 77 79 76 72 66 58 55 50 43 37 27 18 13 10 9 11 14 17 20 25 29 33 38 41 44 48 52 57 60 64 68 72 77 81 87
91 93 88 79 68 60 69 83 88 79 74 70 67 65 58 47 34 25 18 12 7 5 7 11 14 18 23 28 32 36 40 43 45 49 55 60 61 64 68 75 77 85 91
89 83 69 63 61 68 79 86 82 76 74 64 55 46 32 28 24 18 13 9 4 3 8 12 17 21 26 30 35 40 44 46 47 53 58 59 62 66 71 74 80 86 93
75 64 56 58 63 71 75 75 78 69 59 55 50 41 35 27 19 15 10 5 0 5 9 14 18 23 27 32 37 41 45 48 50 53 58 59 63 69 71 76 82 90 94
58 51 53 58 60 65 71 74 66 60 52 43 40 35 30 22 16 11 6 3 2 8 13 18 22 24 30 33 36 41 47 50 51 53 57 62 67 69 71 80 87 91 91
44 47 53 52 58 67 69 67 60 49 45 43 36 30 23 17 13 8 4 4 8 13 18 22 26 30 33 35 37 41 45 47 50 52 56 65 68 67 75 83 85 87 95
40 45 48 54 67 70 70 62 54 50 45 38 32 25 20 15 10 6 7 10 14 18 23 26 30 32 36 38 40 41 43 44 46 52 56 58 63 69 77 82 84 95 102
41 43 55 68 74 72 63 58 55 48 41 35 28 22 17 13 10 9 10 14 18 21 24 26 30 34 37 40 39 42 42 43 49 45 50 63 73 81 85 87 94 100 104
Wind_Direction_850mb
259 254 251 252 251 250 249 249 248 247 247 244 246 244 243 242 240 241 244 246 248 250 253 257 262 266 271 273 274 278 282 284 283 293 296 301 303 306 308 308 309 310 309
269 263 258 256 254 253 252 253 251 249 247 247 244 244 244 243 242 241 244 245 246 248 252 255 261 264 269 272 273 278 283 287 286 289 296 299 303 306 305 306 309 306 303
277 268 264 262 259 257 257 256 254 251 250 247 245 244 244 243 242 241 243 244 245 247 252 255 261 263 266 269 273 278 281 283 284 286 294 298 300 306 310 312 309 305 306
282 272 268 267 267 267 265 260 256 254 252 248 246 246 245 244 243 242 242 242 243 245 249 253 257 261 265 268 270 275 279 282 286 288 293 301 307 312 309 309 310 307 305
297 282 277 278 275 272 265 261 258 256 255 252 249 247 245 244 242 240 240 241 242 244 247 250 254 259 263 265 270 275 279 282 285 294 301 305 304 309 310 308 305 307 307
306 297 293 284 281 276 270 263 258 255 253 250 249 248 245 243 242 240 239 239 240 241 245 248 252 255 259 265 271 277 282 286 292 297 298 302 304 303 302 306 309 309 307
317 311 302 294 288 284 277 267 260 255 252 250 248 247 247 246 242 239 236 236 237 240 242 245 249 254 260 265 271 275 278 282 282 289 288 290 296 301 307 309 307 304 303
311 314 313 307 300 293 284 273 264 258 253 250 249 246 246 248 244 237 233 233 234 236 239 242 246 251 256 264 270 276 281 287 290 295 293 296 297 303 301 298 299 299 303
306 312 303 301 302 299 292 281 272 261 254 251 247 242 241 244 244 235 228 228 230 231 234 238 244 249 256 264 271 277 283 288 292 293 291 294 299 299 302 302 303 307 309
316 315 309 298 296 299 300 295 278 265 259 253 246 242 240 242 242 233 226 226 226 226 228 235 243 249 255 264 271 279 285 291 296 296 301 305 303 305 305 302 305 306 310
305 306 309 304 297 300 295 288 277 263 255 250 244 238 239 240 238 229 226 223 223 222 227 233 240 251 262 271 276 276 282 293 288 295 301 306 308 309 311 311 309 305 307
311 308 305 300 302 294 288 282 273 262 250 241 236 235 236 232 229 222 222 219 218 221 226 232 242 258 263 267 266 276 283 283 294 297 301 307 310 313 314 313 313 308 306
312 312 307 303 298 293 282 275 260 249 236 241 239 233 231 224 214 213 215 214 217 218 225 234 249 254 259 268 280 284 283 292 293 300 306 309 312 314 316 318 314 313 312
307 308 308 305 301 291 279 269 256 253 241 237 233 229 228 212 203 203 199 204 211 214 225 244 249 256 270 279 285 285 290 292 299 305 306 311 314 317 317 321 317 320 318
309 309 305 301 299 288 277 270 265 263 256 245 235 233 227 208 203 203 204 202 205 218 233 237 253 266 280 285 288 292 293 298 302 306 308 312 317 318 317 321 319 320 320
302 304 303 298 294 284 273 268 259 251 247 238 237 240 226 212 198 194 195 201 213 231 233 247 260 273 283 289 290 294 296 300 304 307 310 313 315 317 319 318 319 320 320
296 297 294 291 288 274 268 259 242 231 226 220 216 228 212 194 192 190 191 202 215 234 241 254 268 279 287 287 290 295 299 303 306 308 309 313 316 316 317 316 320 321 321
292 289 285 283 282 270 257 237 204 184 160 150 165 188 180 182 180 181 195 201 208 223 249 264 274 282 284 288 295 298 302 305 307 307 309 312 315 315 315 318 321 319 321
287 284 282 277 275 257 234 207 185 169 164 158 149 149 160 165 164 170 195 195 209 226 250 272 282 287 291 297 301 304 305 307 308 309 311 313 315 316 315 318 318 319 321
287 281 274 270 254 225 202 190 181 177 168 164 167 168 163 168 165 172 175 181 191 230 277 288 296 302 304 304 306 306 306 308 310 311 311 312 314 314 315 317 318 318 320
283 273 263 246 221 206 194 189 185 179 176 167 161 160 155 163 164 161 157 160 177 271 298 302 309 311 308 308 309 309 308 310 312 312 311 311 314 314 317 317 317 318 318
270 260 238 219 205 194 192 188 183 175 161 154 152 157 162 159 154 144 139 139 148 307 311 316 313 311 310 309 308 308 309 311 311 310 310 312 313 314 317 317 318 318 319
262 235 213 200 197 192 186 180 166 156 153 151 157 151 148 145 138 131 123 118 326 321 317 312 314 312 307 307 307 309 308 309 311 311 312 312 313 316 317 316 318 318 319
234 215 202 193 188 181 171 157 151 145 145 151 145 142 137 132 122 117 96 4 332 321 315 315 312 309 308 310 310 308 307 309 309 310 311 311 313 315 316 318 319 319 320
213 201 191 183 176 163 153 145 137 146 147 143 138 131 125 120 110 79 24 347 331 326 320 314 310 310 311 311 311 309 310 310 309 309 309 310 312 317 320 319 320 321 319
191 184 176 167 155 149 140 136 143 141 136 130 124 119 109 92 65 28 355 339 332 323 317 315 315 313 313 312 312 311 311 312 313 317 320 320 319 321 321 318 319 318 316